Weather History for Holdrege, NE

Change the Weather History Date:

Wednesday, February 13, 2013

  Actual Average Record
Temperature  
Mean Temperature 40 °F -  
Max Temperature 55 °F 39 °F 74 °F (2011)
Min Temperature 25 °F 16 °F -2 °F (1949)
Degree Days  
Heating Degree Days 25    
Moisture  
Dew Point 22 °F    
Average Humidity 56    
Maximum Humidity 80    
Minimum Humidity 27    
Precipitation  
Precipitation 0.00 in - - ()
Sea Level Pressure  
Sea Level Pressure 29.86 in    
Wind  
Wind Speed 10 mph (WNW)    
Max Wind Speed 21 mph    
Max Gust Speed 26 mph    
Visibility 10 miles    
Events      
Averages and records for this station are not official NWS values.
T = Trace of Precipitation, MM = Missing Value Source: NWS Daily Summary

Daily Weather History Graph

Daily Weather History Graph

Search for Another Location

Airport:

Trip Planner

Search our weather history database for the weather conditions in past years. The results will help you decide how hot, cold, wet, or windy it might be!

Date:

Astronomy

Feb. 13, 2013 Rise Set
Actual Time 7:33 AM CST 6:10 PM CST
Civil Twilight 7:05 AM CST 6:38 PM CST
Nautical Twilight 6:33 AM CST 7:10 PM CST
Astronomical Twilight 6:01 AM CST 7:42 PM CST
Moon 9:02 AM CST (2/13) 10:16 PM CST (2/13)
Length of Visible Light 11h 33m
Length of Day
10h 37m
Waxing Crescent, 14% of the Moon is Illuminated
Feb 13
Waxing Crescent
Feb 17
First Quarter
Feb 25
Full
Mar 4
Last Quarter
Mar 11
New

Hourly Weather History & Observations

Time (CST) Temp. Windchill Dew Point Humidity Pressure Visibility Wind Dir Wind Speed Gust Speed Precip Events Conditions
12:15 AM 27.7 °F 20.4 °F 21.2 °F 77% 29.94 in 10.0 mi NW 6.9 mph - N/A   Clear
12:35 AM 27.5 °F 20.2 °F 21.2 °F 77% 29.94 in 10.0 mi WNW 6.9 mph - N/A   Clear
12:55 AM 26.4 °F 18.0 °F 20.3 °F 78% 29.94 in 10.0 mi West 8.1 mph - N/A   Clear
1:15 AM 29.1 °F 22.1 °F 21.7 °F 74% 29.94 in 10.0 mi WNW 6.9 mph - N/A   Clear
1:35 AM 28.2 °F 20.2 °F 21.2 °F 75% 29.93 in 10.0 mi West 8.1 mph - N/A   Clear
1:55 AM 27.3 °F 19.1 °F 20.8 °F 77% 29.93 in 10.0 mi West 8.1 mph - N/A   Clear
2:15 AM 27.1 °F 18.9 °F 20.8 °F 77% 29.93 in 10.0 mi West 8.1 mph - N/A   Clear
2:35 AM 27.3 °F 17.7 °F 20.3 °F 75% 29.93 in 10.0 mi West 10.4 mph - N/A   Clear
2:55 AM 26.6 °F 17.5 °F 20.1 °F 77% 29.92 in 10.0 mi West 9.2 mph - N/A   Clear
3:15 AM 25.9 °F 17.4 °F 19.9 °F 78% 29.91 in 10.0 mi West 8.1 mph - N/A   Clear
3:35 AM 25.9 °F 17.4 °F 19.8 °F 78% 29.91 in 10.0 mi West 8.1 mph - N/A   Clear
3:55 AM 27.0 °F 18.0 °F 20.3 °F 76% 29.90 in 10.0 mi West 9.2 mph - N/A   Scattered Clouds
4:15 AM 27.3 °F 18.4 °F 20.3 °F 75% 29.89 in 10.0 mi West 9.2 mph - N/A   Scattered Clouds
4:35 AM 27.0 °F 18.0 °F 20.3 °F 76% 29.89 in 10.0 mi West 9.2 mph - N/A   Scattered Clouds
4:55 AM 27.1 °F 17.5 °F 20.3 °F 75% 29.90 in 10.0 mi West 10.4 mph - N/A   Mostly Cloudy
5:15 AM 27.3 °F 17.1 °F 20.3 °F 75% 29.89 in 10.0 mi West 11.5 mph - N/A   Overcast
5:35 AM 27.3 °F 18.4 °F 20.8 °F 77% 29.89 in 10.0 mi West 9.2 mph - N/A   Overcast
5:55 AM 26.2 °F 16.4 °F 20.1 °F 78% 29.89 in 10.0 mi West 10.4 mph - N/A   Mostly Cloudy
6:15 AM 26.1 °F 16.2 °F 20.3 °F 79% 29.89 in 10.0 mi West 10.4 mph - N/A   Clear
6:35 AM 25.7 °F 16.4 °F 20.3 °F 80% 29.89 in 10.0 mi West 9.2 mph - N/A   Clear
6:55 AM 25.2 °F 17.3 °F 19.4 °F 79% 29.89 in 10.0 mi West 6.9 mph - N/A   Clear
7:15 AM 26.1 °F 18.4 °F 19.4 °F 76% 29.89 in 10.0 mi West 6.9 mph - N/A   Scattered Clouds
7:35 AM 26.1 °F 19.4 °F 19.4 °F 76% 29.88 in 10.0 mi West 5.8 mph - N/A   Clear
7:55 AM 26.6 °F 19.1 °F 19.4 °F 74% 29.88 in 10.0 mi West 6.9 mph - N/A   Clear
8:15 AM 28.2 °F 20.2 °F 19.9 °F 71% 29.88 in 10.0 mi West 8.1 mph - N/A   Clear
8:35 AM 29.3 °F 20.2 °F 20.8 °F 71% 29.89 in 10.0 mi West 10.4 mph - N/A   Scattered Clouds
8:55 AM 31.5 °F 22.9 °F 21.9 °F 68% 29.88 in 10.0 mi West 10.4 mph - N/A   Clear
9:15 AM 32.9 °F 25.3 °F 22.6 °F 66% 29.88 in 10.0 mi West 9.2 mph - N/A   Clear
9:35 AM 35.4 °F 27.8 °F 22.8 °F 60% 29.88 in 10.0 mi West 10.4 mph - N/A   Clear
9:55 AM 37.4 °F 29.3 °F 23.0 °F 56% 29.88 in 10.0 mi West 12.7 mph 18.4 mph N/A   Clear
10:15 AM 39.7 °F 32.7 °F 23.5 °F 52% 29.88 in 10.0 mi WNW 11.5 mph - N/A   Clear
10:35 AM 41.5 °F 34.2 °F 21.7 °F 45% 29.87 in 10.0 mi WNW 13.8 mph - N/A   Clear
10:55 AM 43.2 °F 35.9 °F 21.4 °F 42% 29.87 in 10.0 mi West 15.0 mph 19.6 mph N/A   Clear
11:15 AM 45.5 °F 39.2 °F 21.9 °F 39% 29.86 in 10.0 mi WNW 13.8 mph 18.4 mph N/A   Clear
11:35 AM 46.6 °F - 21.6 °F 37% 29.86 in 10.0 mi WNW 15.0 mph 20.7 mph N/A   Clear
11:55 AM 48.4 °F - 21.7 °F 35% 29.86 in 10.0 mi West 16.1 mph 23.0 mph N/A   Clear
12:15 PM 49.1 °F - 21.6 °F 34% 29.85 in 10.0 mi West 16.1 mph 19.6 mph N/A   Clear
12:35 PM 50.0 °F - 21.4 °F 32% 29.85 in 10.0 mi WNW 11.5 mph 19.6 mph N/A   Clear
12:55 PM 50.5 °F - 20.8 °F 31% 29.84 in 10.0 mi WNW 13.8 mph 23.0 mph N/A   Clear
1:15 PM 52.2 °F - 21.0 °F 30% 29.83 in 10.0 mi WNW 12.7 mph 24.2 mph N/A   Clear
1:35 PM 53.2 °F - 21.2 °F 29% 29.82 in 10.0 mi WNW 11.5 mph 21.9 mph N/A   Clear
1:55 PM 53.6 °F - 21.2 °F 28% 29.81 in 10.0 mi WNW 15.0 mph 25.3 mph N/A   Clear
2:15 PM 54.3 °F - 21.6 °F 28% 29.80 in 10.0 mi NW 18.4 mph 24.2 mph N/A   Clear
2:35 PM 55.0 °F - 21.6 °F 27% 29.79 in 10.0 mi WNW 15.0 mph 24.2 mph N/A   Clear
2:55 PM 54.1 °F - 21.4 °F 28% 29.79 in 10.0 mi WNW 16.1 mph 23.0 mph N/A   Clear
3:15 PM 55.4 °F - 22.1 °F 27% 29.79 in 10.0 mi WNW 16.1 mph 25.3 mph N/A   Clear
3:35 PM 55.4 °F - 21.6 °F 27% 29.79 in 10.0 mi NW 15.0 mph 24.2 mph N/A   Clear
3:55 PM 54.7 °F - 21.7 °F 28% 29.79 in 10.0 mi NW 20.7 mph 26.5 mph N/A   Clear
4:15 PM 53.6 °F - 21.9 °F 29% 29.79 in 10.0 mi NW 13.8 mph - N/A   Clear
4:35 PM 51.6 °F - 22.5 °F 32% 29.80 in 10.0 mi WNW 13.8 mph - N/A   Clear
4:55 PM 50.9 °F - 23.4 °F 34% 29.80 in 10.0 mi WNW 11.5 mph - N/A   Scattered Clouds
5:15 PM 52.2 °F - 24.1 °F 34% 29.79 in 10.0 mi West 10.4 mph - N/A   Clear
5:35 PM 49.3 °F - 23.5 °F 36% 29.80 in 10.0 mi West 9.2 mph - N/A   Scattered Clouds
5:55 PM 47.5 °F - 23.4 °F 39% 29.80 in 10.0 mi WNW 5.8 mph - N/A   Clear
6:15 PM 44.8 °F 40.4 °F 23.9 °F 44% 29.81 in 10.0 mi WNW 8.1 mph - N/A   Clear
6:35 PM 40.3 °F 36.3 °F 23.2 °F 51% 29.81 in 10.0 mi West 5.8 mph - N/A   Clear
6:55 PM 40.5 °F 35.1 °F 23.2 °F 50% 29.81 in 10.0 mi West 8.1 mph - N/A   Clear
7:15 PM 38.3 °F 33.9 °F 23.0 °F 54% 29.82 in 10.0 mi West 5.8 mph - N/A   Clear
7:35 PM 38.8 °F 33.8 °F 23.2 °F 53% 29.83 in 10.0 mi West 6.9 mph - N/A   Clear
7:55 PM 36.7 °F 31.2 °F 22.8 °F 57% 29.83 in 10.0 mi West 6.9 mph - N/A   Clear
8:15 PM 35.6 °F 28.6 °F 22.6 °F 59% 29.83 in 10.0 mi West 9.2 mph - N/A   Clear
8:35 PM 37.9 °F 31.5 °F 24.6 °F 59% 29.83 in 10.0 mi West 9.2 mph - N/A   Clear
8:55 PM 39.0 °F 31.8 °F 25.2 °F 58% 29.83 in 10.0 mi West 11.5 mph - N/A   Scattered Clouds
9:15 PM 41.0 °F 33.5 °F 25.5 °F 54% 29.84 in 10.0 mi West 13.8 mph - N/A   Mostly Cloudy
9:35 PM 42.1 °F 35.2 °F 25.3 °F 52% 29.84 in 10.0 mi West 12.7 mph - N/A   Mostly Cloudy
9:55 PM 40.1 °F 32.4 °F 25.5 °F 56% 29.85 in 10.0 mi WNW 13.8 mph - N/A   Mostly Cloudy
10:15 PM 42.8 °F 35.8 °F 26.2 °F 52% 29.86 in 10.0 mi WNW 13.8 mph 20.7 mph N/A   Scattered Clouds
10:35 PM 39.9 °F 32.9 °F 25.9 °F 57% 29.87 in 10.0 mi WNW 11.5 mph - N/A   Mostly Cloudy
10:55 PM 40.6 °F 33.0 °F 27.5 °F 59% 29.88 in 10.0 mi WNW 13.8 mph - N/A   Mostly Cloudy
11:15 PM 42.4 °F 34.7 °F 30.2 °F 62% 29.89 in 10.0 mi NW 16.1 mph 26.5 mph N/A   Scattered Clouds
11:35 PM 41.2 °F 34.1 °F 30.7 °F 66% 29.89 in 10.0 mi NW 12.7 mph 19.6 mph N/A   Mostly Cloudy
11:55 PM 41.0 °F 33.1 °F 30.9 °F 67% 29.90 in 10.0 mi NNW 15.0 mph 21.9 mph N/A   Scattered Clouds